Regional Weather Roundup
Issued by NWS

Home | Current Version | Previous Version | Graphics & Text | Print | Product List | Glossary On
Versions: 1 2 3 4 5 6 7 8 9 10 11 12 13 14 15 16 17 18 19 20 21 22 23 24 25 26 27 28 29 30 31 32 33 34 35 36 37 38 39 40 41 42 43 44 45 46 47 48 49 50
058
ASUS45 KBOU 250210
RWRCO

WEATHER ROUNDUP FOR COLORADO
NATIONAL WEATHER SERVICE DENVER/BOULDER CO
800 PM MDT SAT SEP 24 2016

NOTE: "FAIR" INDICATES FEW OR NO CLOUDS BELOW 12000 FEET WITH NO
SIGNIFICANT WEATHER AND/OR OBSTRUCTIONS TO VISIBILITY.

COZ001>005-013-030-031-250300-
...NORTHWEST COLORADO...

CITY           SKY/WX    TMP DP  RH WIND       PRES   REMARKS
CRAIG          LGT RAIN  45  42  89 CALM      30.35R
HAYDEN         CLOUDY    41  36  81 W7        30.35R
MEEKER         CLOUDY    48  40  73 CALM      30.34R
MOUNT WERNER   NOT AVBL
STEAMBOAT SPGS CLOUDY    40  39  95 CALM      30.34R
WALDEN           N/A     36  32  87 N7        30.35R
$$

COZ006>008-011-250300-
...WEST CENTRAL VALLEYS...

CITY           SKY/WX    TMP DP  RH WIND       PRES   REMARKS
GRAND JUNCTION CLOUDY    55  43  63 N6        30.28R
MONTROSE       CLOUDY    54  41  61 CALM      30.31R
EAGLE          MOCLDY    48  37  66 W7        30.34R
RIFLE          CLOUDY    50  45  83 CALM      30.32R
DELTA          NOT AVBL
NUCLA          NOT AVBL
$$

COZ017>023-064>068-250300-
...SOUTHWEST COLORADO...

CITY           SKY/WX    TMP DP  RH WIND       PRES   REMARKS
DURANGO        FAIR      50  33  52 W9        30.23R
CORTEZ         CLOUDY    53  42  66 N3        30.25R
PAGOSA SPRINGS FAIR      43  35  73 CALM      30.27R
TELLURIDE      CLOUDY    43  30  61 W3        30.38S
WOLF CREEK PAS FAIR      30  28  93 MISG      30.45R
$$

COZ009-010-012-014-032>034-037-058>063-250300-
...CENTRAL COLORADO...

CITY           SKY/WX    TMP DP  RH WIND       PRES   REMARKS
ASPEN          CLOUDY    43  36  76 N5        30.35R
BUENA VISTA    MOCLDY    47  27  45 NW9G15    30.30R
COPPER MTN     CLOUDY    32  28  86 MISG      30.44S
BERTHOUD PASS  CLOUDY    23  10  58 MISG      30.42R
COTTONWOOD PAS MOCLDY    43  27  52 W12G17    30.36R
GUNNISON       MOCLDY    43  34  70 N5        30.34R
KREMMLING      CLOUDY    43  32  65 N8        30.35R
LEADVILLE      CLOUDY    35  26  69 NW12      30.37R WCI  27
SALIDA         CLOUDY    49  30  46 W10G18    30.35R
SUNLIGHT       FOG       32  32 100 MISG      30.46R VSB<1/4
WILKERSON PASS FAIR      32  23  69 NW8G17    30.42R WCI  25
$$

COZ069>075-250300-
...SAN LUIS VALLEY/SANGRE DE CRISTO MOUNTAINS...

CITY           SKY/WX    TMP DP  RH WIND       PRES   REMARKS
ALAMOSA        FAIR      48  27  44 N16G29    30.26R
LA VETA PASS   NOT AVBL
SAGUACHE       NOT AVBL
$$

COZ035-036-038>040-250300-
...NORTHERN COLORADO FRONT RANGE...

CITY           SKY/WX    TMP DP  RH WIND       PRES   REMARKS
DENVER INTL AP FAIR      58  30  34 W10       30.17R
DMNS CITY PARK   N/A     58  29  33 N8        30.18R
AURORA         PTCLDY    55  30  37 W8        30.19R
FRONT RANGE AP PTCLDY    55  28  35 W7        30.18R
ERIE MUNI ARPT FAIR      54  29  38 W7        30.16R
BOULDER MUN AP FAIR      59  30  33 W12G23    30.16R
CENTENNIAL     FAIR      56  29  35 NW6       30.19R
BROOMFIELD     MOCLDY    57  30  35 W9        30.18R
FORT COLLINS   MOCLDY    61  32  33 N17       30.16R
LONGMONT       CLOUDY    60  30  31 W6        30.17R
$$

COZ041-046-047-076>085-087-088-250300-
...PIKES PEAK/PALMER DIVIDE AND SOUTHERN FOOTHILLS...

CITY           SKY/WX    TMP DP  RH WIND       PRES   REMARKS
COLO. SPRINGS  FAIR      59  22  24 N16       30.17R
A. F. ACADEMY  FAIR      54  22  29 N13       30.19R
SCHRIEVER AFB  NOT AVBL
ELLICOTT       FAIR     N/A N/A N/A N14       30.16R
FALCON         FAIR      53  21  28 N10       30.22R
FORT CARSON    FAIR      59  24  26 N9        30.14R
LIMON          CLOUDY    60  25  26 N12       30.14R
MONUMENT HILL  FAIR      45  23  42 NW10      30.25R
TRINIDAD       FAIR      60  26  27 N6        30.12R
$$

COZ042>045-048>051-090-091-250300-
...NORTHEAST COLORADO...

CITY           SKY/WX    TMP DP  RH WIND       PRES   REMARKS
GREELEY ARPT   MOCLDY    59  36  41 N17G29    30.16R
AKRON          MOCLDY    59  34  39 N26G35    30.14R
BURLINGTON     FAIR      58  40  51 E5        30.06R
WRAY           NOT AVBL
STERLING       FAIR      59  39  47 N16       30.11R
HOLYOKE        FAIR      63  39  42 N14       30.10R
FORT MORGAN    FAIR      57  35  42 N18G26    30.15R
$$

COZ086-089-092>099-250300-
...SOUTHEAST COLORADO...

CITY           SKY/WX    TMP DP  RH WIND       PRES   REMARKS
PUEBLO         FAIR      66  27  23 NW15      30.08R
LA JUNTA       FAIR      66  33  29 VRB3      30.05R
LAMAR          FAIR      62  36  37 SE10      30.00R
SPRINGFIELD    NOT AVBL
$$




USA.gov is the U.S. government's official web portal to all federal, state and local government web resources and services.